Location: Colonia Mina de C?rbuni
(46.1667°N, 22.7167°E)
Time: 06:26:08
(UTC+00:00)

Tiros 1 - Pass Details

Date: 29 April 2024
Orbit: 624 x 657 km, 48.4° (Epoch: 25 May)

Event Time Altitude Azimuth Distance (km) Brightness Sun altitude
Rises 19:39:35 0° 242° (WSW) 2,952 10.7 -18.4°
Reaches altitude 10° 19:41:56 10° 240° (WSW) 2,039 9.9 -18.7°
Maximum altitude 19:46:37 72° 157° (SSE) 675 7.0 -19.2°
Enters shadow 19:49:57 19° 75° (ENE) 1,526 8.8 -19.6°
